When you browse on this site, cookies collect data to enhance your experience and personalize the content and advertising you see.
Visit our Privacy Policy to learn more. By continuing to use the site, you agree to this use of cookies and data.
  • en Belgique
  • Liste des pays
  • À 7 jours
  • Température de l'eau
  • Carte météo
  • Widgets météo
  • user-avatar
    Se connecter

    Météo par heure à Maloe Zagore

    Ce jour, 22 Septembre, Dimanche

    Heure Température Précipitation Vent Pression Humidité
    00:00 +4°C° 0.4 mm 2 m/s 735 mmHg 97%
    01:00 +5°C° 0.4 mm 2 m/s 735 mmHg 96%
    02:00 +5°C° 0.4 mm 2 m/s 735 mmHg 96%
    03:00 +3°C° 0.3 mm 3 m/s 735 mmHg 95%
    04:00 +2°C° 0.3 mm 3 m/s 734 mmHg 94%
    05:00 0°C° 0.3 mm 4 m/s 734 mmHg 93%
    06:00 +1°C° 0.1 mm 4 m/s 735 mmHg 93%
    07:00 +1°C° 0.1 mm 4 m/s 735 mmHg 93%
    08:00 +1°C° 0.1 mm 5 m/s 735 mmHg 92%
    09:00 +1°C° 0.1 mm 5 m/s 736 mmHg 91%
    10:00 +2°C° 0.1 mm 5 m/s 736 mmHg 89%
    11:00 +2°C° 0.1 mm 5 m/s 737 mmHg 88%
    12:00 +2°C° 0.3 mm 5 m/s 737 mmHg 86%
    13:00 +3°C° 0.3 mm 5 m/s 738 mmHg 85%
    14:00 +3°C° 0.3 mm 6 m/s 738 mmHg 83%
    15:00 +3°C° 0.1 mm 5 m/s 739 mmHg 84%
    16:00 +2°C° 0.1 mm 5 m/s 739 mmHg 84%
    17:00 +3°C° 0.1 mm 4 m/s 740 mmHg 85%
    18:00 +1°C° 0 mm 4 m/s 740 mmHg 86%
    19:00 +1°C° 0 mm 4 m/s 741 mmHg 88%
    20:00 +1°C° 0 mm 4 m/s 741 mmHg 89%
    21:00 0°C° 0 mm 4 m/s 742 mmHg 89%
    22:00 0°C° 0 mm 4 m/s 742 mmHg 89%
    23:00 0°C° 0 mm 4 m/s 743 mmHg 89%

    Demain, 23 Septembre, Lundi

    Heure Température Précipitation Vent Pression Humidité
    00:00 -1°C° 0 mm 4 m/s 743 mmHg 90%
    01:00 -1°C° 0 mm 4 m/s 743 mmHg 90%
    02:00 -1°C° 0 mm 4 m/s 744 mmHg 91%
    03:00 -1°C° 0 mm 4 m/s 744 mmHg 91%
    04:00 -1°C° 0 mm 4 m/s 744 mmHg 90%
    05:00 -1°C° 0 mm 4 m/s 744 mmHg 89%
    06:00 -1°C° 0 mm 4 m/s 744 mmHg 85%
    07:00 0°C° 0 mm 5 m/s 744 mmHg 80%
    08:00 +1°C° 0 mm 5 m/s 745 mmHg 75%
    09:00 +2°C° 0 mm 5 m/s 745 mmHg 73%
    10:00 +2°C° 0 mm 5 m/s 745 mmHg 71%
    11:00 +3°C° 0 mm 5 m/s 745 mmHg 69%
    12:00 +3°C° 0.1 mm 5 m/s 745 mmHg 67%
    13:00 +5°C° 0.1 mm 5 m/s 745 mmHg 65%
    14:00 +5°C° 0.1 mm 5 m/s 745 mmHg 63%
    15:00 +3°C° 0.1 mm 5 m/s 745 mmHg 69%
    16:00 +4°C° 0.1 mm 4 m/s 745 mmHg 76%
    17:00 +3°C° 0.1 mm 4 m/s 745 mmHg 82%
    18:00 +1°C° 0.1 mm 4 m/s 745 mmHg 85%
    19:00 +2°C° 0.1 mm 3 m/s 745 mmHg 88%
    20:00 +1°C° 0.1 mm 3 m/s 746 mmHg 91%
    21:00 +1°C° 0 mm 3 m/s 746 mmHg 93%
    22:00 +1°C° 0 mm 2 m/s 746 mmHg 95%
    23:00 -1°C° 0 mm 2 m/s 746 mmHg 97%

    Après-demain, 24 Septembre, Mardi

    Heure Température Précipitation Vent Pression Humidité
    00:00 -1°C° 0 mm 2 m/s 746 mmHg 97%
    01:00 -1°C° 0 mm 2 m/s 746 mmHg 97%
    02:00 -2°C° 0 mm 2 m/s 746 mmHg 97%
    03:00 -2°C° 0 mm 2 m/s 746 mmHg 97%
    04:00 -2°C° 0 mm 2 m/s 746 mmHg 97%
    05:00 -2°C° 0 mm 2 m/s 746 mmHg 97%
    06:00 -1°C° 0 mm 2 m/s 746 mmHg 91%
    07:00 +1°C° 0 mm 2 m/s 746 mmHg 86%
    08:00 +1°C° 0 mm 3 m/s 746 mmHg 80%
    09:00 +2°C° 0 mm 3 m/s 747 mmHg 77%
    10:00 +2°C° 0 mm 3 m/s 747 mmHg 74%
    11:00 +3°C° 0 mm 3 m/s 747 mmHg 70%
    12:00 +3°C° 0 mm 3 m/s 747 mmHg 70%
    13:00 +3°C° 0 mm 3 m/s 747 mmHg 69%
    14:00 +4°C° 0 mm 3 m/s 746 mmHg 69%
    15:00 +3°C° 0 mm 3 m/s 746 mmHg 72%
    16:00 +3°C° 0 mm 3 m/s 746 mmHg 76%
    17:00 +4°C° 0 mm 2 m/s 746 mmHg 80%
    18:00 +3°C° 0 mm 2 m/s 746 mmHg 83%
    19:00 +3°C° 0 mm 2 m/s 746 mmHg 85%
    20:00 +2°C° 0 mm 2 m/s 746 mmHg 88%
    21:00 +2°C° 0 mm 2 m/s 746 mmHg 88%
    22:00 +1°C° 0 mm 2 m/s 746 mmHg 88%
    23:00 +2°C° 0 mm 1 m/s 746 mmHg 88%

    25 Septembre, Mercredi

    Heure Température Précipitation Vent Pression Humidité
    00:00 -1°C° 0 mm 2 m/s 746 mmHg 89%
    01:00 -1°C° 0 mm 2 m/s 746 mmHg 91%
    02:00 -1°C° 0 mm 2 m/s 746 mmHg 93%
    03:00 -1°C° 0 mm 2 m/s 746 mmHg 94%
    04:00 -1°C° 0 mm 2 m/s 746 mmHg 95%
    05:00 -2°C° 0 mm 2 m/s 746 mmHg 96%
    06:00 +1°C° 0 mm 2 m/s 746 mmHg 92%
    07:00 +2°C° 0 mm 2 m/s 746 mmHg 88%
    08:00 +3°C° 0 mm 2 m/s 746 mmHg 84%
    09:00 +5°C° 0 mm 1 m/s 747 mmHg 78%
    10:00 +7°C° 0 mm 1 m/s 747 mmHg 72%
    11:00 +8°C° 0 mm 1 m/s 747 mmHg 66%
    12:00 +8°C° 0 mm 1 m/s 747 mmHg 66%
    13:00 +9°C° 0 mm 1 m/s 747 mmHg 65%
    14:00 +9°C° 0 mm 1 m/s 747 mmHg 64%
    15:00 +8°C° 0 mm 1 m/s 747 mmHg 68%
    16:00 +7°C° 0 mm 1 m/s 746 mmHg 72%
    17:00 +6°C° 0 mm 0 m/s 746 mmHg 76%
    18:00 +6°C° 0 mm 1 m/s 746 mmHg 80%
    19:00 +5°C° 0 mm 1 m/s 747 mmHg 83%
    20:00 +4°C° 0 mm 1 m/s 747 mmHg 87%
    21:00 +4°C° 0 mm 1 m/s 747 mmHg 89%
    22:00 +3°C° 0 mm 1 m/s 747 mmHg 90%
    23:00 +3°C° 0 mm 1 m/s 747 mmHg 92%

    26 Septembre, Jeudi

    Heure Température Précipitation Vent Pression Humidité
    00:00 +3°C° 0 mm 1 m/s 746 mmHg 92%
    01:00 +3°C° 0 mm 1 m/s 746 mmHg 93%
    02:00 +4°C° 0 mm 1 m/s 746 mmHg 93%
    03:00 +4°C° 0.2 mm 1 m/s 746 mmHg 94%
    04:00 +3°C° 0.2 mm 2 m/s 745 mmHg 95%
    05:00 +3°C° 0.2 mm 2 m/s 745 mmHg 97%
    06:00 +3°C° 0.5 mm 2 m/s 745 mmHg 97%
    07:00 +2°C° 0.5 mm 3 m/s 744 mmHg 97%
    08:00 +3°C° 0.5 mm 3 m/s 744 mmHg 97%
    09:00 +3°C° 0.3 mm 3 m/s 744 mmHg 96%
    10:00 +3°C° 0.3 mm 3 m/s 744 mmHg 96%
    11:00 +3°C° 0.3 mm 3 m/s 744 mmHg 96%
    12:00 +3°C° 0.1 mm 3 m/s 744 mmHg 95%
    13:00 +3°C° 0.1 mm 3 m/s 744 mmHg 95%
    14:00 +3°C° 0.1 mm 3 m/s 743 mmHg 94%
    15:00 +3°C° 0 mm 3 m/s 743 mmHg 94%
    16:00 +3°C° 0 mm 3 m/s 743 mmHg 94%
    17:00 +3°C° 0 mm 3 m/s 743 mmHg 93%
    18:00 +3°C° 0 mm 2 m/s 743 mmHg 94%
    19:00 +3°C° 0 mm 2 m/s 744 mmHg 95%
    20:00 +3°C° 0 mm 2 m/s 744 mmHg 96%
    21:00 +2°C° 0 mm 2 m/s 744 mmHg 96%
    22:00 +2°C° 0 mm 2 m/s 744 mmHg 96%
    23:00 +2°C° 0 mm 2 m/s 744 mmHg 97%

    27 Septembre, Vendredi

    Heure Température Précipitation Vent Pression Humidité
    00:00 +2°C° 0 mm 2 m/s 744 mmHg 97%
    01:00 +2°C° 0 mm 2 m/s 744 mmHg 96%
    02:00 +2°C° 0 mm 2 m/s 744 mmHg 96%
    03:00 +2°C° 0 mm 2 m/s 744 mmHg 96%
    04:00 +2°C° 0 mm 2 m/s 744 mmHg 95%
    05:00 +1°C° 0 mm 2 m/s 744 mmHg 95%
    06:00 +1°C° 0 mm 3 m/s 744 mmHg 93%
    07:00 +1°C° 0 mm 3 m/s 744 mmHg 91%
    08:00 +2°C° 0 mm 3 m/s 744 mmHg 89%
    09:00 +3°C° 0 mm 3 m/s 745 mmHg 84%
    10:00 +4°C° 0 mm 3 m/s 745 mmHg 79%
    11:00 +5°C° 0 mm 3 m/s 745 mmHg 73%
    12:00 +5°C° 0 mm 3 m/s 745 mmHg 71%
    13:00 +7°C° 0 mm 3 m/s 745 mmHg 69%
    14:00 +7°C° 0 mm 3 m/s 745 mmHg 67%
    15:00 +6°C° 0 mm 2 m/s 745 mmHg 69%
    16:00 +6°C° 0 mm 2 m/s 745 mmHg 72%
    17:00 +6°C° 0 mm 1 m/s 745 mmHg 74%
    18:00 +5°C° 0 mm 1 m/s 745 mmHg 78%
    19:00 +4°C° 0 mm 1 m/s 746 mmHg 82%
    20:00 +2°C° 0 mm 0 m/s 746 mmHg 86%
    21:00 +2°C° 0 mm 0 m/s 746 mmHg 87%
    22:00 +2°C° 0 mm 1 m/s 746 mmHg 89%
    23:00 +2°C° 0 mm 1 m/s 747 mmHg 90%
    Voir plus